QPF
0.01 0.01 0.01 0.01 0.02 0.03 0.03 0.03 0.03 0.02 0.02 0.02 0.03 0.03 0.03 0.04 0.05 0.05 0.06 0.05 0.05 0.05 0.06 0.07 0.07 0.07 0.08 0.08 0.08 0.09 0.11 0.11 0.10 0.06 0.04 0.03 0.03 0.03 0.03 0.03 0.03 0.03 0.03
0.01 0.01 0.01 0.02 0.02 0.03 0.03 0.03 0.03 0.04 0.04 0.03 0.03 0.03 0.02 0.02 0.02 0.02 0.03 0.03 0.03 0.03 0.03 0.03 0.03 0.03 0.03 0.04 0.05 0.05 0.06 0.07 0.07 0.06 0.04 0.04 0.05 0.05 0.05 0.04 0.04 0.03 0.03
0.00 0.00 0.01 0.01 0.02 0.02 0.02 0.02 0.02 0.02 0.02 0.02 0.02 0.02 0.02 0.02 0.02 0.02 0.03 0.03 0.03 0.03 0.03 0.03 0.03 0.03 0.03 0.03 0.03 0.03 0.03 0.04 0.05 0.06 0.05 0.04 0.05 0.05 0.05 0.06 0.06 0.05 0.05
0.00 0.00 0.01 0.01 0.01 0.01 0.01 0.02 0.02 0.02 0.02 0.01 0.01 0.01 0.01 0.02 0.03 0.04 0.04 0.05 0.04 0.04 0.04 0.04 0.04 0.04 0.03 0.03 0.02 0.02 0.02 0.03 0.03 0.05 0.05 0.04 0.04 0.04 0.05 0.06 0.07 0.06 0.06
0.01 0.01 0.01 0.01 0.01 0.01 0.01 0.01 0.01 0.01 0.01 0.02 0.02 0.02 0.02 0.02 0.03 0.03 0.03 0.03 0.03 0.02 0.02 0.02 0.02 0.03 0.03 0.02 0.02 0.02 0.03 0.03 0.03 0.03 0.03 0.03 0.03 0.03 0.04 0.05 0.06 0.06 0.07
0.01 0.01 0.01 0.01 0.01 0.01 0.01 0.01 0.01 0.02 0.02 0.02 0.02 0.03 0.03 0.04 0.05 0.05 0.04 0.04 0.03 0.03 0.02 0.02 0.02 0.03 0.03 0.03 0.02 0.02 0.02 0.02 0.02 0.02 0.02 0.02 0.02 0.02 0.03 0.04 0.05 0.06 0.06
0.01 0.01 0.01 0.01 0.01 0.01 0.01 0.01 0.01 0.02 0.03 0.03 0.02 0.02 0.02 0.03 0.04 0.04 0.03 0.03 0.02 0.03 0.03 0.03 0.02 0.02 0.02 0.02 0.02 0.02 0.02 0.02 0.01 0.01 0.02 0.02 0.02 0.02 0.03 0.04 0.04 0.05 0.05
0.01 0.01 0.01 0.01 0.01 0.01 0.01 0.01 0.01 0.01 0.01 0.02 0.02 0.01 0.01 0.01 0.02 0.02 0.02 0.02 0.02 0.03 0.03 0.03 0.03 0.03 0.03 0.03 0.03 0.03 0.02 0.02 0.02 0.01 0.01 0.01 0.02 0.02 0.02 0.03 0.03 0.04 0.05
0.02 0.02 0.01 0.01 0.01 0.00 0.00 0.00 0.01 0.01 0.00 0.00 0.00 0.01 0.01 0.01 0.01 0.01 0.01 0.01 0.01 0.02 0.02 0.03 0.03 0.03 0.04 0.04 0.03 0.03 0.02 0.02 0.02 0.02 0.02 0.02 0.02 0.02 0.02 0.02 0.03 0.04 0.04
0.02 0.02 0.01 0.01 0.01 0.01 0.01 0.01 0.01 0.00 0.00 0.00 0.00 0.00 0.00 0.01 0.01 0.01 0.01 0.01 0.01 0.01 0.01 0.02 0.03 0.03 0.04 0.04 0.03 0.03 0.03 0.03 0.03 0.02 0.02 0.02 0.02 0.02 0.02 0.03 0.03 0.03 0.03
0.01 0.01 0.01 0.01 0.01 0.01 0.01 0.00 0.00 0.00 0.00 0.00 0.01 0.01 0.01 0.01 0.01 0.01 0.01 0.01 0.01 0.01 0.01 0.02 0.02 0.03 0.03 0.03 0.03 0.04 0.04 0.03 0.03 0.03 0.02 0.02 0.02 0.02 0.02 0.02 0.03 0.03 0.03
0.01 0.01 0.01 0.01 0.01 0.01 0.00 0.00 0.00 0.00 0.01 0.01 0.01 0.01 0.01 0.01 0.01 0.01 0.01 0.01 0.01 0.01 0.01 0.02 0.02 0.03 0.03 0.03 0.03 0.04 0.04 0.03 0.03 0.03 0.03 0.02 0.02 0.01 0.01 0.01 0.01 0.01 0.02
0.01 0.01 0.01 0.01 0.01 0.01 0.00 0.00 0.00 0.01 0.01 0.01 0.01 0.01 0.01 0.01 0.01 0.02 0.02 0.02 0.02 0.02 0.02 0.03 0.04 0.05 0.04 0.04 0.03 0.03 0.03 0.03 0.03 0.03 0.02 0.02 0.01 0.01 0.01 0.01 0.01 0.01 0.01
0.00 0.00 0.00 0.00 0.00 0.00 0.00 0.00 0.01 0.01 0.01 0.01 0.01 0.01 0.01 0.01 0.02 0.02 0.02 0.02 0.02 0.02 0.02 0.03 0.04 0.05 0.05 0.05 0.04 0.03 0.03 0.03 0.03 0.03 0.02 0.02 0.01 0.01 0.01 0.01 0.01 0.02 0.02
0.00 0.00 0.00 0.00 0.00 0.01 0.01 0.01 0.01 0.01 0.02 0.02 0.02 0.02 0.02 0.02 0.02 0.02 0.03 0.03 0.03 0.03 0.03 0.03 0.04 0.04 0.04 0.04 0.04 0.03 0.03 0.03 0.03 0.02 0.02 0.02 0.02 0.01 0.01 0.01 0.01 0.02 0.02
0.00 0.00 0.00 0.01 0.01 0.01 0.01 0.01 0.01 0.01 0.01 0.02 0.02 0.03 0.03 0.03 0.02 0.02 0.03 0.03 0.03 0.03 0.04 0.03 0.03 0.03 0.03 0.03 0.03 0.03 0.03 0.03 0.02 0.02 0.02 0.02 0.02 0.02 0.02 0.01 0.01 0.02 0.02
0.01 0.01 0.01 0.01 0.01 0.01 0.01 0.01 0.01 0.01 0.01 0.02 0.02 0.02 0.02 0.02 0.02 0.02 0.03 0.03 0.03 0.04 0.03 0.03 0.03 0.03 0.03 0.03 0.03 0.03 0.02 0.02 0.02 0.02 0.02 0.02 0.02 0.02 0.02 0.02 0.02 0.02 0.02
0.01 0.01 0.01 0.01 0.01 0.01 0.01 0.01 0.01 0.01 0.01 0.01 0.01 0.01 0.01 0.02 0.02 0.02 0.03 0.03 0.03 0.03 0.02 0.02 0.02 0.03 0.03 0.03 0.03 0.02 0.02 0.02 0.02 0.02 0.02 0.02 0.02 0.02 0.02 0.02 0.02 0.02 0.02
0.00 0.00 0.01 0.01 0.01 0.01 0.01 0.01 0.01 0.01 0.01 0.01 0.01 0.01 0.01 0.01 0.02 0.02 0.03 0.02 0.02 0.02 0.02 0.02 0.02 0.02 0.03 0.03 0.03 0.02 0.02 0.02 0.02 0.02 0.02 0.02 0.02 0.02 0.02 0.02 0.02 0.02 0.02
0.00 0.00 0.00 0.00 0.00 0.01 0.01 0.01 0.01 0.01 0.01 0.01 0.01 0.01 0.01 0.01 0.02 0.02 0.02 0.02 0.02 0.02 0.02 0.02 0.02 0.02 0.02 0.03 0.03 0.02 0.02 0.02 0.02 0.02 0.02 0.02 0.02 0.02 0.02 0.02 0.02 0.02 0.02
0.00 0.00 0.00 0.00 0.00 0.00 0.01 0.01 0.01 0.01 0.01 0.01 0.01 0.01 0.02 0.02 0.02 0.02 0.02 0.02 0.02 0.02 0.02 0.02 0.02 0.02 0.02 0.02 0.03 0.02 0.02 0.02 0.02 0.02 0.02 0.02 0.02 0.02 0.02 0.02 0.02 0.02 0.02
0.00 0.00 0.00 0.00 0.00 0.00 0.00 0.00 0.00 0.00 0.00 0.00 0.00 0.00 0.01 0.01 0.01 0.02 0.02 0.02 0.02 0.02 0.02 0.02 0.02 0.02 0.02 0.02 0.02 0.02 0.02 0.02 0.02 0.02 0.02 0.02 0.02 0.02 0.02 0.02 0.02 0.02 0.02
0.00 0.00 0.00 0.00 0.00 0.00 0.00 0.00 0.00 0.00 0.00 0.00 0.00 0.00 0.01 0.01 0.01 0.01 0.02 0.02 0.02 0.02 0.02 0.02 0.02 0.02 0.02 0.02 0.02 0.02 0.02 0.02 0.02 0.02 0.02 0.02 0.02 0.02 0.02 0.02 0.02 0.02 0.02
0.00 0.00 0.00 0.00 0.00 0.00 0.00 0.00 0.00 0.00 0.00 0.00 0.00 0.00 0.01 0.01 0.01 0.01 0.01 0.01 0.02 0.02 0.02 0.02 0.02 0.02 0.02 0.02 0.02 0.02 0.02 0.02 0.02 0.02 0.02 0.02 0.02 0.02 0.02 0.02 0.01 0.01 0.02
0.00 0.00 0.00 0.00 0.01 0.01 0.01 0.00 0.00 0.00 0.00 0.00 0.00 0.00 0.01 0.01 0.01 0.01 0.01 0.01 0.01 0.02 0.02 0.02 0.02 0.02 0.02 0.02 0.02 0.02 0.02 0.02 0.02 0.02 0.02 0.02 0.02 0.02 0.02 0.02 0.01 0.01 0.02
0.00 0.00 0.01 0.01 0.01 0.01 0.01 0.00 0.00 0.00 0.00 0.00 0.00 0.00 0.01 0.01 0.01 0.01 0.01 0.01 0.01 0.01 0.02 0.02 0.02 0.02 0.02 0.02 0.02 0.02 0.02 0.02 0.02 0.02 0.02 0.02 0.02 0.02 0.02 0.02 0.02 0.02 0.02
MSLP
1030.29 1030.11 1029.89 1029.65 1029.43 1029.24 1029.07 1028.92 1028.76 1028.56 1028.32 1028.01 1027.62 1027.17 1026.67 1026.13 1025.56 1024.98 1024.39 1023.79 1023.20 1022.59 1021.98 1021.33 1020.66 1019.95 1019.19 1018.37 1017.47 1016.50 1015.45 1014.33 1013.17 1012.00 1010.86 1009.78 1008.82 1008.00 1007.35 1006.85 1006.51 1006.28 1006.14
1031.02 1030.82 1030.57 1030.29 1030.01 1029.77 1029.56 1029.36 1029.17 1028.95 1028.69 1028.38 1027.99 1027.53 1027.02 1026.45 1025.85 1025.23 1024.59 1023.94 1023.28 1022.62 1021.95 1021.27 1020.58 1019.86 1019.11 1018.30 1017.43 1016.49 1015.47 1014.37 1013.21 1012.02 1010.85 1009.73 1008.71 1007.82 1007.10 1006.54 1006.15 1005.88 1005.72
1031.64 1031.44 1031.17 1030.86 1030.55 1030.27 1030.01 1029.76 1029.52 1029.26 1028.97 1028.61 1028.20 1027.72 1027.18 1026.60 1025.97 1025.32 1024.64 1023.95 1023.24 1022.53 1021.82 1021.11 1020.39 1019.66 1018.91 1018.12 1017.28 1016.37 1015.38 1014.32 1013.19 1012.02 1010.84 1009.70 1008.64 1007.71 1006.92 1006.31 1005.85 1005.54 1005.35
1032.16 1031.96 1031.68 1031.36 1031.03 1030.72 1030.42 1030.13 1029.83 1029.51 1029.16 1028.76 1028.29 1027.78 1027.21 1026.61 1025.96 1025.29 1024.59 1023.87 1023.14 1022.40 1021.65 1020.90 1020.15 1019.40 1018.64 1017.86 1017.04 1016.17 1015.23 1014.21 1013.12 1011.99 1010.83 1009.69 1008.62 1007.65 1006.81 1006.13 1005.62 1005.25 1005.02
1032.57 1032.37 1032.09 1031.78 1031.45 1031.12 1030.79 1030.46 1030.11 1029.73 1029.31 1028.84 1028.32 1027.77 1027.17 1026.54 1025.89 1025.21 1024.50 1023.77 1023.02 1022.25 1021.47 1020.69 1019.91 1019.13 1018.35 1017.56 1016.76 1015.91 1015.01 1014.04 1013.01 1011.93 1010.81 1009.69 1008.61 1007.61 1006.73 1005.98 1005.39 1004.96 1004.67
1032.89 1032.68 1032.41 1032.12 1031.80 1031.47 1031.12 1030.76 1030.36 1029.92 1029.44 1028.91 1028.34 1027.74 1027.12 1026.48 1025.81 1025.13 1024.43 1023.69 1022.93 1022.14 1021.32 1020.50 1019.67 1018.84 1018.03 1017.23 1016.42 1015.59 1014.72 1013.81 1012.84 1011.81 1010.73 1009.64 1008.57 1007.55 1006.62 1005.81 1005.14 1004.62 1004.26
1033.13 1032.92 1032.67 1032.40 1032.10 1031.78 1031.43 1031.04 1030.60 1030.12 1029.58 1029.00 1028.38 1027.75 1027.10 1026.45 1025.78 1025.10 1024.40 1023.66 1022.87 1022.05 1021.19 1020.31 1019.42 1018.54 1017.67 1016.83 1016.01 1015.18 1014.34 1013.47 1012.55 1011.58 1010.56 1009.50 1008.44 1007.41 1006.43 1005.56 1004.81 1004.21 1003.77
1033.35 1033.14 1032.91 1032.65 1032.37 1032.06 1031.71 1031.31 1030.84 1030.32 1029.74 1029.11 1028.46 1027.80 1027.13 1026.47 1025.80 1025.12 1024.40 1023.64 1022.83 1021.96 1021.05 1020.10 1019.13 1018.17 1017.24 1016.35 1015.49 1014.66 1013.84 1013.00 1012.13 1011.21 1010.24 1009.22 1008.17 1007.13 1006.13 1005.20 1004.38 1003.71 1003.19
1033.59 1033.38 1033.16 1032.92 1032.65 1032.35 1031.99 1031.57 1031.08 1030.52 1029.90 1029.24 1028.56 1027.88 1027.20 1026.52 1025.84 1025.14 1024.41 1023.62 1022.77 1021.84 1020.85 1019.82 1018.77 1017.73 1016.72 1015.77 1014.87 1014.01 1013.19 1012.38 1011.54 1010.67 1009.74 1008.76 1007.74 1006.70 1005.68 1004.73 1003.86 1003.13 1002.56
1033.86 1033.66 1033.45 1033.21 1032.95 1032.64 1032.27 1031.82 1031.30 1030.70 1030.05 1029.36 1028.65 1027.94 1027.24 1026.55 1025.85 1025.14 1024.37 1023.54 1022.63 1021.64 1020.58 1019.46 1018.33 1017.21 1016.13 1015.10 1014.16 1013.27 1012.44 1011.63 1010.82 1009.97 1009.08 1008.13 1007.14 1006.12 1005.11 1004.14 1003.26 1002.51 1001.93
1034.19 1033.99 1033.78 1033.55 1033.27 1032.94 1032.53 1032.05 1031.48 1030.85 1030.16 1029.43 1028.70 1027.96 1027.24 1026.53 1025.80 1025.05 1024.25 1023.38 1022.41 1021.36 1020.23 1019.04 1017.83 1016.64 1015.49 1014.41 1013.41 1012.50 1011.64 1010.82 1010.01 1009.18 1008.31 1007.39 1006.42 1005.42 1004.43 1003.49 1002.63 1001.90 1001.34
1034.54 1034.36 1034.14 1033.90 1033.59 1033.22 1032.77 1032.24 1031.63 1030.94 1030.21 1029.45 1028.68 1027.91 1027.16 1026.42 1025.67 1024.88 1024.04 1023.12 1022.11 1021.01 1019.83 1018.59 1017.33 1016.09 1014.89 1013.77 1012.73 1011.78 1010.89 1010.05 1009.22 1008.38 1007.51 1006.59 1005.64 1004.67 1003.71 1002.80 1001.99 1001.32 1000.82
1034.87 1034.70 1034.49 1034.22 1033.89 1033.47 1032.97 1032.38 1031.71 1030.98 1030.20 1029.39 1028.58 1027.79 1027.01 1026.23 1025.45 1024.64 1023.76 1022.81 1021.77 1020.64 1019.43 1018.17 1016.89 1015.63 1014.41 1013.27 1012.21 1011.22 1010.30 1009.42 1008.55 1007.67 1006.77 1005.84 1004.88 1003.92 1002.99 1002.14 1001.40 1000.80 1000.40
1035.12 1034.97 1034.76 1034.48 1034.11 1033.65 1033.10 1032.46 1031.74 1030.95 1030.13 1029.29 1028.45 1027.62 1026.81 1026.00 1025.19 1024.35 1023.45 1022.48 1021.43 1020.29 1019.09 1017.84 1016.58 1015.33 1014.13 1012.98 1011.90 1010.89 1009.93 1009.00 1008.07 1007.14 1006.18 1005.20 1004.22 1003.25 1002.35 1001.54 1000.86 1000.36 1000.05
1035.25 1035.12 1034.91 1034.61 1034.23 1033.74 1033.15 1032.47 1031.71 1030.89 1030.04 1029.17 1028.30 1027.45 1026.61 1025.78 1024.94 1024.07 1023.15 1022.18 1021.13 1020.01 1018.84 1017.63 1016.42 1015.21 1014.04 1012.92 1011.85 1010.82 1009.82 1008.83 1007.84 1006.82 1005.79 1004.74 1003.70 1002.71 1001.80 1001.02 1000.40 999.97 999.77
1035.22 1035.11 1034.91 1034.61 1034.21 1033.71 1033.11 1032.41 1031.64 1030.81 1029.94 1029.06 1028.18 1027.31 1026.44 1025.59 1024.72 1023.84 1022.91 1021.93 1020.90 1019.81 1018.68 1017.54 1016.38 1015.24 1014.13 1013.04 1011.99 1010.96 1009.93 1008.88 1007.81 1006.71 1005.59 1004.46 1003.36 1002.32 1001.39 1000.61 1000.02 999.65 999.53
1035.04 1034.94 1034.74 1034.46 1034.07 1033.58 1032.98 1032.30 1031.54 1030.72 1029.86 1028.99 1028.10 1027.22 1026.34 1025.46 1024.57 1023.66 1022.72 1021.73 1020.71 1019.65 1018.57 1017.48 1016.39 1015.32 1014.27 1013.23 1012.21 1011.18 1010.13 1009.04 1007.91 1006.73 1005.53 1004.32 1003.14 1002.05 1001.09 1000.30 999.73 999.41 999.34
1034.72 1034.62 1034.45 1034.18 1033.81 1033.35 1032.79 1032.14 1031.41 1030.63 1029.80 1028.95 1028.07 1027.19 1026.30 1025.40 1024.48 1023.54 1022.56 1021.56 1020.53 1019.48 1018.43 1017.38 1016.34 1015.33 1014.33 1013.34 1012.35 1011.33 1010.28 1009.17 1007.99 1006.77 1005.51 1004.24 1003.01 1001.88 1000.90 1000.10 999.54 999.23 999.21
1034.28 1034.20 1034.05 1033.81 1033.47 1033.05 1032.54 1031.94 1031.27 1030.54 1029.75 1028.93 1028.08 1027.20 1026.30 1025.37 1024.41 1023.43 1022.41 1021.37 1020.31 1019.24 1018.18 1017.14 1016.13 1015.14 1014.18 1013.22 1012.26 1011.26 1010.22 1009.11 1007.93 1006.69 1005.41 1004.13 1002.90 1001.76 1000.77 999.98 999.44 999.16 999.16
1033.77 1033.71 1033.58 1033.37 1033.09 1032.71 1032.26 1031.72 1031.11 1030.43 1029.70 1028.92 1028.09 1027.22 1026.30 1025.34 1024.34 1023.30 1022.22 1021.12 1020.00 1018.88 1017.78 1016.71 1015.67 1014.68 1013.72 1012.78 1011.83 1010.86 1009.84 1008.76 1007.61 1006.40 1005.16 1003.91 1002.72 1001.62 1000.67 999.93 999.42 999.18 999.22
1033.21 1033.18 1033.08 1032.91 1032.67 1032.35 1031.95 1031.48 1030.93 1030.31 1029.62 1028.88 1028.08 1027.21 1026.29 1025.30 1024.25 1023.14 1021.99 1020.80 1019.59 1018.39 1017.20 1016.06 1014.97 1013.92 1012.93 1011.97 1011.02 1010.07 1009.08 1008.05 1006.97 1005.84 1004.68 1003.53 1002.43 1001.43 1000.57 999.91 999.48 999.29 999.38
1032.61 1032.62 1032.57 1032.45 1032.25 1031.98 1031.64 1031.21 1030.72 1030.15 1029.51 1028.81 1028.03 1027.17 1026.23 1025.22 1024.12 1022.95 1021.71 1020.42 1019.11 1017.80 1016.50 1015.25 1014.05 1012.92 1011.86 1010.86 1009.89 1008.94 1007.99 1007.02 1006.03 1005.01 1003.98 1002.97 1002.02 1001.16 1000.44 999.90 999.58 999.48 999.64
1031.97 1032.04 1032.05 1031.98 1031.84 1031.62 1031.31 1030.94 1030.48 1029.96 1029.36 1028.68 1027.93 1027.08 1026.15 1025.11 1023.98 1022.74 1021.43 1020.04 1018.62 1017.17 1015.74 1014.36 1013.03 1011.79 1010.63 1009.55 1008.54 1007.59 1006.67 1005.76 1004.87 1003.99 1003.11 1002.28 1001.50 1000.82 1000.28 999.89 999.70 999.71 999.95
1031.30 1031.44 1031.51 1031.51 1031.42 1031.24 1030.98 1030.64 1030.23 1029.74 1029.17 1028.53 1027.80 1026.97 1026.04 1024.99 1023.83 1022.56 1021.17 1019.70 1018.17 1016.60 1015.04 1013.51 1012.05 1010.67 1009.39 1008.23 1007.16 1006.18 1005.28 1004.44 1003.64 1002.89 1002.18 1001.53 1000.95 1000.46 1000.09 999.87 999.82 999.96 1000.28
1030.58 1030.81 1030.96 1031.02 1030.99 1030.85 1030.63 1030.33 1029.94 1029.49 1028.95 1028.34 1027.64 1026.83 1025.92 1024.88 1023.71 1022.41 1020.98 1019.44 1017.82 1016.14 1014.46 1012.80 1011.20 1009.69 1008.30 1007.04 1005.91 1004.90 1004.01 1003.22 1002.51 1001.88 1001.33 1000.84 1000.44 1000.13 999.94 999.87 999.96 1000.19 1000.60
1029.84 1030.16 1030.39 1030.52 1030.54 1030.45 1030.27 1030.00 1029.64 1029.21 1028.71 1028.13 1027.46 1026.69 1025.80 1024.77 1023.61 1022.30 1020.85 1019.27 1017.58 1015.83 1014.05 1012.28 1010.57 1008.96 1007.47 1006.12 1004.93 1003.90 1003.01 1002.26 1001.63 1001.10 1000.67 1000.33 1000.08 999.92 999.87 999.93 1000.12 1000.44 1000.90
Thickness
5473 5475 5477 5478 5480 5481 5481 5481 5482 5482 5482 5482 5482 5482 5481 5480 5479 5477 5476 5474 5473 5471 5468 5466 5465 5462 5461 5460 5458 5457 5456 5455 5458 5463 5460 5457 5454 5453 5452 5451 5451 5450 5450
5458 5460 5462 5464 5465 5467 5467 5467 5467 5467 5467 5467 5467 5467 5466 5465 5464 5463 5461 5459 5457 5455 5453 5450 5448 5446 5445 5443 5442 5441 5439 5438 5438 5442 5443 5441 5438 5436 5435 5435 5435 5434 5433
5445 5447 5449 5450 5451 5452 5452 5453 5453 5453 5453 5453 5452 5452 5451 5450 5448 5447 5446 5444 5442 5439 5437 5434 5432 5430 5428 5427 5425 5424 5423 5421 5421 5422 5425 5423 5421 5419 5418 5419 5418 5417 5417
5433 5434 5435 5436 5437 5437 5438 5438 5438 5438 5439 5439 5438 5436 5435 5434 5433 5431 5429 5428 5426 5423 5420 5418 5415 5413 5412 5411 5410 5408 5406 5405 5404 5405 5406 5406 5404 5403 5401 5402 5403 5402 5401
5421 5422 5422 5422 5422 5423 5423 5423 5423 5423 5424 5423 5422 5421 5420 5419 5417 5415 5413 5412 5410 5408 5405 5402 5400 5397 5395 5393 5392 5391 5390 5389 5389 5389 5389 5389 5389 5386 5385 5384 5384 5386 5386
5409 5409 5409 5409 5409 5409 5409 5409 5409 5408 5407 5407 5406 5406 5405 5403 5401 5398 5396 5395 5394 5392 5390 5387 5384 5382 5380 5378 5376 5374 5373 5373 5373 5372 5372 5372 5373 5370 5367 5365 5365 5368 5372
5397 5397 5397 5397 5397 5396 5396 5396 5395 5393 5392 5391 5391 5390 5388 5387 5385 5383 5380 5378 5377 5375 5373 5370 5368 5366 5363 5361 5360 5359 5357 5356 5355 5355 5356 5356 5355 5354 5351 5349 5348 5348 5351
5386 5386 5385 5384 5384 5384 5383 5382 5381 5380 5378 5377 5376 5374 5373 5371 5368 5366 5364 5361 5360 5358 5355 5352 5350 5349 5347 5344 5343 5343 5341 5340 5338 5337 5337 5338 5336 5335 5332 5331 5329 5329 5331
5374 5374 5373 5372 5372 5371 5370 5369 5368 5366 5365 5363 5361 5359 5357 5355 5352 5349 5346 5345 5343 5341 5338 5335 5332 5330 5329 5327 5325 5325 5324 5323 5320 5319 5318 5318 5317 5316 5314 5313 5312 5313 5317
5362 5361 5360 5359 5359 5358 5357 5356 5354 5352 5350 5348 5346 5344 5341 5339 5337 5333 5330 5328 5327 5325 5322 5319 5316 5313 5311 5309 5307 5305 5305 5304 5302 5301 5300 5299 5299 5298 5297 5295 5295 5296 5298
5349 5348 5348 5346 5345 5345 5344 5342 5340 5338 5337 5335 5333 5330 5327 5324 5322 5319 5315 5311 5309 5307 5305 5303 5300 5298 5295 5293 5290 5287 5286 5283 5282 5282 5282 5281 5280 5280 5279 5278 5277 5277 5280
5336 5336 5335 5334 5332 5332 5330 5328 5326 5324 5323 5321 5319 5317 5314 5311 5307 5305 5301 5297 5293 5290 5289 5287 5285 5282 5280 5277 5274 5271 5268 5265 5265 5265 5264 5263 5262 5262 5261 5260 5260 5260 5261
5324 5323 5322 5321 5319 5317 5316 5314 5312 5310 5309 5307 5305 5303 5301 5297 5293 5290 5287 5283 5279 5276 5274 5272 5269 5267 5264 5261 5258 5255 5251 5249 5247 5246 5246 5245 5243 5242 5242 5244 5245 5246 5247
5312 5311 5310 5308 5307 5305 5302 5300 5297 5296 5294 5292 5289 5287 5285 5282 5279 5276 5273 5270 5267 5264 5261 5258 5255 5252 5248 5245 5242 5239 5235 5232 5230 5229 5228 5227 5226 5226 5227 5228 5231 5233 5236
5301 5299 5298 5296 5294 5291 5289 5285 5283 5280 5276 5274 5273 5271 5269 5269 5266 5261 5258 5256 5253 5250 5246 5244 5241 5238 5235 5231 5227 5223 5220 5218 5216 5214 5213 5213 5212 5212 5213 5213 5215 5217 5221
5290 5288 5286 5283 5280 5278 5276 5275 5271 5267 5264 5261 5258 5255 5254 5252 5250 5249 5246 5244 5240 5236 5233 5230 5227 5223 5220 5217 5214 5211 5208 5206 5203 5201 5201 5200 5199 5200 5200 5201 5202 5204 5207
5278 5276 5273 5270 5267 5264 5262 5260 5259 5257 5253 5249 5246 5242 5240 5238 5237 5235 5233 5231 5227 5222 5218 5215 5212 5209 5206 5203 5200 5198 5197 5194 5191 5189 5188 5187 5187 5187 5187 5189 5190 5192 5194
5267 5264 5260 5258 5254 5251 5247 5244 5242 5240 5239 5237 5233 5229 5226 5224 5223 5222 5219 5217 5214 5209 5204 5201 5198 5195 5192 5190 5188 5186 5184 5182 5180 5178 5177 5175 5175 5175 5176 5178 5179 5180 5182
5257 5254 5250 5246 5242 5238 5234 5231 5228 5224 5222 5221 5220 5217 5213 5210 5209 5206 5204 5201 5199 5196 5191 5188 5185 5182 5179 5177 5175 5174 5173 5172 5170 5168 5166 5165 5165 5165 5166 5168 5169 5170 5171
5248 5243 5238 5234 5230 5226 5221 5218 5214 5211 5208 5206 5203 5201 5198 5196 5194 5192 5188 5185 5183 5181 5178 5175 5172 5170 5168 5166 5164 5163 5162 5162 5160 5158 5157 5156 5156 5157 5158 5159 5160 5162 5163
5239 5234 5227 5223 5219 5214 5209 5205 5201 5197 5194 5191 5188 5185 5183 5180 5178 5176 5173 5170 5168 5166 5164 5163 5161 5159 5157 5156 5154 5153 5152 5152 5151 5150 5149 5148 5148 5149 5150 5151 5152 5153 5155
5228 5223 5218 5212 5207 5202 5197 5193 5188 5184 5181 5177 5175 5171 5168 5165 5163 5161 5159 5157 5154 5152 5151 5150 5150 5149 5148 5146 5145 5144 5144 5143 5143 5142 5141 5141 5141 5142 5143 5144 5146 5147 5148
5218 5213 5207 5202 5196 5191 5185 5181 5177 5173 5169 5165 5161 5158 5155 5153 5150 5148 5146 5145 5143 5141 5140 5139 5139 5139 5139 5137 5137 5136 5136 5136 5136 5135 5135 5135 5135 5136 5137 5139 5140 5140 5142
5208 5202 5196 5191 5185 5180 5175 5171 5166 5162 5158 5154 5150 5147 5144 5142 5139 5137 5135 5133 5132 5131 5130 5130 5130 5130 5130 5129 5129 5129 5129 5129 5129 5130 5130 5130 5130 5131 5132 5133 5134 5135 5135
5197 5192 5186 5181 5175 5170 5165 5160 5156 5151 5147 5144 5140 5137 5134 5132 5129 5127 5125 5124 5122 5122 5121 5121 5122 5122 5122 5122 5123 5123 5124 5125 5125 5125 5125 5125 5126 5126 5127 5128 5128 5129 5129
5188 5182 5176 5170 5165 5160 5155 5150 5146 5141 5137 5133 5130 5127 5124 5122 5119 5118 5116 5115 5114 5113 5113 5114 5114 5114 5115 5116 5117 5118 5119 5120 5120 5121 5121 5122 5122 5122 5122 5123 5123 5124 5125